Погода в Тлянубе

Россия / Республика Дагестан     42°26′08″N   46°27′25″E
темп.,
°C
ветер,
м/с
пор.,
м/с
влажн.,
%
обл.,
%
осадки,
мм/ч
давл.,
гПа
погр.,
м
25 июня, сб
сб2500:00+9ююз228712 0.3 101223
03:00+9ююз338738 0.3 101235
06:00+12юз22821 0.0 101181
09:00+17всв236111 0.3 1009975
12:00+19всв336268 2.1 1008783
15:00+18св226896 6.4 1008495
18:00+16ссв228088 2.9 1010129
21:00+12ююз2286100 4.8 101230
26 июня, вс
вс2600:00+10ююз4485100 0.8 101269
03:00+10ююз2284100 4.2 101222
06:00+13ю117796 0.0 101058
09:00+16вюв2273100 0.4 1009513
12:00+17ссв216843 2.9 1008533
15:00+17св227480 8.2 1008683
18:00+14св2389100 5.8 1009154
21:00+12ююв228995 8.3 101237
27 июня, пн
пн2700:00+11юз0188100 0.1 101210
03:00+10юз11863 0.1 101310
06:00+13зюз11775 0.0 101259
09:00+17св21680 0.0 1011541
12:00+19св336510 0.6 10111125
15:00+18св337556 4.4 1012794
18:00+15всв228879 2.7 1013360
21:00+13в1197100 3.4 101541
28 июня, вт
вт2800:00+12юв1194100 0.3 101414
03:00+12з219028 0.6 101313
06:00+13зюз11810 0.0 101271
09:00+17ссв21700 0.0 1010694
12:00+19ссв326617 0.6 10101056
15:00+18ссв327240 3.1 1011854
18:00+15сз228295 1.4 1013353
21:00+12сз118958 1.7 101526
29 июня, ср
ср2900:00+11ю1194100 1.1 101528
03:00+10в119527 1.2 101510
06:00+11ююв019010 0.0 1015171
09:00+15всв227796 0.1 1014890
12:00+15всв227590 0.6 1014915
15:00+13св228699 2.2 1015216
18:00+13в128698 0.3 1015278
21:00+12вюв1190100 0.4 101628